Location: Hartford
(41.7640°N, 72.6860°W)
Time: 12:18:20
(UTC-04:00)

Amateur Radio Satellites - All Passes

Search period start: 05 September 2015 11:48
Search period end: 06 September 2015 11:48
Location: Hartford, 41.7640°N, 72.6860°W

Satellite Date Start Highest point End Downlink Frequencies (MHz)
Time Altitude Azimuth
PCSat 05 Sep 11:50:06 11:53:23 16° 254° (WSW) 11:56:25 145.827
DUCHIFAT 1 05 Sep 11:53:25 11:57:20 36° 263° (W) 12:01:17 145.980
Oscar 19 05 Sep 11:54:07 11:56:09 13° 60° (ENE) 11:58:27 437.125/150
CUSAT 1 05 Sep 11:54:19 12:01:22 33° 272° (W) 12:08:13 437.405
POLYITAN 1 05 Sep 11:57:15 12:01:05 31° 264° (W) 12:04:56 437.675
POPSAT HIP 1 05 Sep 11:57:46 12:01:37 31° 264° (W) 12:05:26 437.405
CUBEBUG 1 05 Sep 11:59:59 12:04:13 44° 98° (E) 12:08:28 437.445
ISS 05 Sep 12:01:10 12:03:41 20° 17° (NNE) 12:06:13 145.825
Cosmos 2504 05 Sep 12:13:20 12:19:08 20° 281° (W) 12:24:20 435.465 / 435.565
NANOSAT C BR1 05 Sep 12:13:36 12:16:58 22° 267° (W) 12:20:15 145.865
AISAT 05 Sep 12:15:10 12:19:41 77° 285° (WNW) 12:24:09 437.250
QB50P2 05 Sep 12:16:59 12:20:08 19° 268° (W) 12:23:13 145.880/145.840
ESTCUBE 1 05 Sep 12:20:44 12:25:17 90° 138° (SE) 12:29:48 437.505/2401.250
TISAT 1 05 Sep 12:21:15 12:22:57 12° 89° (E) 12:24:53 437.305
HUMSAT D 05 Sep 12:30:10 12:33:11 19° 293° (WNW) 12:36:02 437.325/437.525
QB50P1 05 Sep 12:30:35 12:33:04 15° 270° (W) 12:35:23 145.935-145.965
VELOX 1 05 Sep 12:42:05 12:46:19 41° 289° (WNW) 12:50:31 145.980
50 SAT 05 Sep 12:44:05 12:47:20 25° 290° (WNW) 12:50:29 437.505
GONETS M04 05 Sep 12:54:57 13:03:08 42° 72° (ENE) 13:11:26
DANDE 05 Sep 13:00:54 13:05:48 17° 277° (W) 13:10:22 436.750
ITAMSAT 1 05 Sep 13:03:35 13:06:12 15° 61° (ENE) 13:09:02 435.822/435.867
DX 1 05 Sep 13:10:08 13:12:44 15° 296° (WNW) 13:15:10 434.975-435.025
SPROUT 05 Sep 13:11:20 13:15:42 84° 102° (ESE) 13:20:02 437.525
Gurwin Techsat 1B 05 Sep 13:13:57 13:17:53 22° 65° (ENE) 13:21:59 435.225
UKube-1 05 Sep 13:14:37 13:17:07 15° 296° (WNW) 13:19:28 .
RS-15 05 Sep 13:21:53 13:24:26 11° 97° (E) 13:28:09 29.354- 29.394
ITUPSAT 1 05 Sep 13:27:51 13:29:09 11° 87° (E) 13:30:44 437.325
Oscar 19 05 Sep 13:29:38 13:34:50 89° 276° (W) 13:40:05 437.125/150
CUBEBUG 1 05 Sep 13:37:09 13:40:16 19° 294° (WNW) 13:43:16 437.445
ISS 05 Sep 13:37:13 13:40:28 88° 24° (NNE) 13:43:43 145.825
JAS-2 05 Sep 13:53:03 13:59:51 35° 65° (ENE) 14:06:44 435.910
TISAT 1 05 Sep 13:54:56 13:59:09 57° 286° (WNW) 14:03:20 437.305
BEESAT 05 Sep 13:55:42 13:59:25 23° 93° (E) 14:03:15 436.000
AIST 2 05 Sep 13:57:32 13:58:09 10° 109° (ESE) 13:59:02 435.215
BEESAT 3 05 Sep 14:00:06 14:04:10 80° 122° (ESE) 14:08:15 437.485
Cosmos 2499 05 Sep 14:05:50 14:13:11 32° 67° (ENE) 14:20:15 435.465 / 435.565
AO-7 05 Sep 14:06:53 14:12:59 24° 54° (NE) 14:19:20 29.400- 29.500
BEESAT 2 05 Sep 14:19:58 14:24:04 85° 303° (WNW) 14:28:12 435.950
SWISSCUBE 05 Sep 14:21:51 14:26:26 46° 99° (E) 14:31:01 437.505
ITAMSAT 1 05 Sep 14:39:57 14:45:08 78° 258° (WSW) 14:50:20 435.822/435.867
SPROUT 05 Sep 14:50:47 14:51:11 10° 298° (WNW) 14:51:19 437.525
GONETS M04 05 Sep 14:51:52 15:00:05 44° 272° (W) 15:08:12
Gurwin Techsat 1B 05 Sep 14:52:25 14:57:34 50° 261° (W) 15:02:44 435.225
ITUPSAT 1 05 Sep 15:02:54 15:07:41 76° 286° (WNW) 15:12:26 437.325
Oscar 19 05 Sep 15:14:08 15:15:03 10° 275° (W) 15:15:35 437.125/150
ISS 05 Sep 15:15:47 15:16:27 10° 230° (SW) 15:16:59 145.825
KKS-1 05 Sep 15:19:44 15:23:34 27° 95° (E) 15:27:26 437.445
RS-15 05 Sep 15:24:05 15:34:43 63° 115° (ESE) 15:45:50 29.354- 29.394
HORYU 2 05 Sep 15:30:01 15:34:14 41° 71° (ENE) 15:38:30 437.375
AIST 2 05 Sep 15:31:56 15:36:10 77° 302° (WNW) 15:40:27 435.215
BEESAT 05 Sep 15:33:00 15:37:24 37° 290° (WNW) 15:41:45 436.000
JAS-2 05 Sep 15:36:57 15:44:34 55° 262° (W) 15:52:12 435.910
BEESAT 3 05 Sep 15:40:26 15:42:39 14° 321° (NW) 15:44:45 437.485
AO-7 05 Sep 15:56:35 16:04:58 84° 253° (WSW) 16:13:21 29.400- 29.500
Cosmos 2499 05 Sep 15:58:35 16:06:54 57° 269° (W) 16:14:34 435.465 / 435.565
SWISSCUBE 05 Sep 16:00:30 16:03:59 20° 295° (WNW) 16:07:21 437.505
BEESAT 2 05 Sep 16:00:59 16:02:47 12° 323° (NW) 16:04:29 435.950
MOZHAYETS 4 05 Sep 16:10:46 16:13:16 15° 89° (E) 16:15:58
STARS 05 Sep 16:23:43 16:28:12 80° 103° (ESE) 16:32:38 437.465
KKS-1 05 Sep 16:56:16 17:00:09 29° 292° (WNW) 17:03:59 437.445
Cubesat XI-IV 05 Sep 17:01:07 17:04:36 19° 63° (ENE) 17:08:16 437.490
HORYU 2 05 Sep 17:07:49 17:11:05 19° 268° (W) 17:14:13 437.375
AIST 2 05 Sep 17:13:45 17:15:31 12° 324° (NW) 17:17:08 435.215
RS-15 05 Sep 17:37:21 17:47:46 44° 321° (NW) 17:58:34 29.354- 29.394
CUTE-I 05 Sep 17:42:42 17:47:38 42° 70° (ENE) 17:52:38 437.470
MOZHAYETS 4 05 Sep 17:46:26 17:50:53 53° 287° (WNW) 17:55:19
AO-7 05 Sep 17:54:00 17:59:08 16° 273° (W) 18:03:43 29.400- 29.500
STARS 05 Sep 18:02:40 18:04:03 11° 298° (WNW) 18:05:11 437.465
O/OREOS (USA 219) 05 Sep 18:02:42 18:07:08 57° 109° (ESE) 18:11:39 437.305
BRITE-PL 05 Sep 18:13:41 18:15:43 13° 61° (ENE) 18:18:04 437.365/2234.400
CUBESAT XI-V 05 Sep 18:18:07 18:22:10 29° 95° (E) 18:26:16 437.345
Cubesat XI-IV 05 Sep 18:39:01 18:44:16 62° 258° (WSW) 18:49:34 437.490
STRAND 1 05 Sep 18:40:34 18:42:44 13° 88° (E) 18:45:12 437.568
AIST 1 05 Sep 18:44:24 18:48:45 70° 81° (E) 18:53:06
Cosmos 2491 05 Sep 19:06:06 19:14:15 42° 72° (ENE) 19:22:31 435.465 / 435.565
HO-68 05 Sep 19:13:18 19:19:06 29° 61° (ENE) 19:25:06 435.675
YUBILEINY 05 Sep 19:14:58 19:20:16 19° 79° (E) 19:26:04 435.215
CUTE-I 05 Sep 19:23:30 19:27:54 25° 267° (W) 19:32:11 437.470
PRISM 05 Sep 19:36:53 19:40:28 29° 96° (E) 19:44:07 437.425
DOVE 4 05 Sep 19:37:37 19:41:49 32° 69° (ENE) 19:46:19 437.250
O/OREOS (USA 219) 05 Sep 19:43:59 19:47:01 17° 308° (NW) 19:49:55 437.305
CINEMA 3 05 Sep 19:44:39 19:47:46 18° 64° (ENE) 19:51:07 145.822/145.860
BRITE-PL 05 Sep 19:49:05 19:53:34 73° 260° (W) 19:58:29 437.365/2234.400
CUTE 1.7 + AOD 2 05 Sep 19:49:34 19:53:06 26° 69° (ENE) 19:56:42 437.475
GOMX 1 05 Sep 19:50:05 19:54:43 68° 74° (ENE) 19:59:44 467.674
CUBESAT XI-V 05 Sep 19:55:32 19:59:34 29° 291° (WNW) 20:03:31 437.345
RS-15 05 Sep 19:55:51 20:04:20 23° 353° (N) 20:13:02 29.354- 29.394
CANX-2 05 Sep 20:03:54 20:07:55 41° 72° (ENE) 20:11:58 2200.000
SEEDS 05 Sep 20:15:33 20:19:29 39° 72° (ENE) 20:23:28 437.485
STRAND 1 05 Sep 20:17:29 20:22:36 74° 286° (WNW) 20:27:42 437.568
COMPASS 1 05 Sep 20:28:12 20:32:10 42° 73° (ENE) 20:36:09 437.405
UWE-3 05 Sep 20:30:38 20:33:39 18° 65° (ENE) 20:36:50 435.000/436.395/437.385
AAUSAT CUBESAT 2 05 Sep 20:33:32 20:37:27 40° 72° (ENE) 20:41:23 437.432
CUBEBUG 2 05 Sep 20:34:26 20:38:11 24° 68° (ENE) 20:42:04 437.445
Oscar 11 05 Sep 20:51:21 20:55:05 30° 70° (ENE) 20:58:54 145.826/435.025
HO-68 05 Sep 20:59:23 21:06:27 60° 258° (WSW) 21:13:33 435.675
Cosmos 2491 05 Sep 21:03:03 21:11:13 44° 272° (W) 21:19:15 435.465 / 435.565
Cosmos 2504 05 Sep 21:04:36 21:05:56 11° 74° (ENE) 21:08:00 435.465 / 435.565
YUBILEINY 05 Sep 21:07:14 21:16:02 88° 279° (W) 21:24:57 435.215
PRISM 05 Sep 21:12:29 21:15:47 23° 292° (WNW) 21:19:02 437.425
DOVE 4 05 Sep 21:15:25 21:19:34 29° 267° (W) 21:23:54 437.250
CINEMA 3 05 Sep 21:19:48 21:24:30 57° 261° (W) 21:29:25 145.822/145.860
CUTE 1.7 + AOD 2 05 Sep 21:25:15 21:28:57 27° 265° (W) 21:32:35 437.475
GOMX 1 05 Sep 21:31:17 21:33:34 13° 275° (W) 21:35:38 467.674
AISAT 05 Sep 21:40:35 21:41:18 10° 61° (ENE) 21:42:16 437.250
CANX-2 05 Sep 21:41:08 21:44:04 17° 269° (W) 21:46:50 2200.000
HUMSAT D 05 Sep 21:45:36 21:49:19 29° 70° (ENE) 21:53:05 437.325/437.525
ZACube-1 05 Sep 21:45:42 21:50:16 76° 75° (ENE) 21:54:54 437.345
FUNcube-1 05 Sep 21:48:29 21:53:03 79° 76° (ENE) 21:57:40 145.935
SEEDS 05 Sep 21:52:31 21:55:28 18° 269° (W) 21:58:17 437.485
DELFI C3 05 Sep 21:53:11 21:57:14 88° 257° (WSW) 22:01:18 145.870
50 SAT 05 Sep 21:54:21 21:56:26 14° 66° (ENE) 21:58:41 437.505
VELOX 1 05 Sep 22:04:42 22:07:38 18° 65° (ENE) 22:10:43 145.980
UWE-3 05 Sep 22:05:15 22:09:48 52° 261° (W) 22:14:24 435.000/436.395/437.385
COMPASS 1 05 Sep 22:05:19 22:08:03 16° 269° (W) 22:10:38 437.405
CUBEBUG 2 05 Sep 22:10:19 22:14:41 37° 264° (W) 22:19:05 437.445
AAUSAT CUBESAT 2 05 Sep 22:10:29 22:13:16 17° 269° (W) 22:15:53 437.432
RS-15 05 Sep 22:11:54 22:21:48 31° 27° (NNE) 22:32:15 29.354- 29.394
AIST 2 05 Sep 22:16:56 22:18:14 11° 35° (NE) 22:19:40 435.215
BEESAT 3 05 Sep 22:18:18 22:22:15 50° 53° (NE) 22:26:07 437.485
Oscar 11 05 Sep 22:27:40 22:31:17 25° 266° (W) 22:34:51 145.826/435.025
DX 1 05 Sep 22:28:17 22:32:26 49° 72° (ENE) 22:36:40 434.975-435.025
TIGRISAT 05 Sep 22:28:55 22:31:55 18° 90° (E) 22:35:00 435.000
UKube-1 05 Sep 22:32:00 22:36:08 48° 72° (ENE) 22:40:19 .
BEESAT 2 05 Sep 22:38:44 22:42:46 61° 55° (NE) 22:46:44 435.950
ANTELSAT 05 Sep 22:47:44 22:51:39 29° 95° (E) 22:55:33 437.575/2403.000
DANDE 05 Sep 22:48:11 22:49:52 12° 79° (E) 22:51:59 436.750
Cosmos 2504 05 Sep 22:48:27 22:56:32 62° 92° (E) 23:05:02 435.465 / 435.565
CUBEBUG 1 05 Sep 22:56:22 23:00:21 37° 71° (ENE) 23:04:23 437.445
M-CUBED/EXP-1 PRIME 05 Sep 22:57:23 22:59:28 15° 95° (E) 23:01:37 437.505
YUBILEINY 05 Sep 23:08:16 23:14:25 19° 301° (WNW) 23:20:09 435.215
AISAT 05 Sep 23:12:50 23:17:16 84° 257° (WSW) 23:21:44 437.250
TISAT 1 05 Sep 23:15:01 23:15:49 11° 62° (ENE) 23:16:51 437.305
CUSAT 1 05 Sep 23:18:22 23:22:35 48° 92° (E) 23:28:15 437.405
ESTCUBE 1 05 Sep 23:20:22 23:24:52 85° 76° (ENE) 23:29:22 437.505/2401.250
HUMSAT D 05 Sep 23:21:24 23:25:02 25° 266° (W) 23:28:36 437.325/437.525
BUGSAT 1 05 Sep 23:21:34 23:23:43 14° 90° (E) 23:26:05 437.445
SO-50 05 Sep 23:24:57 23:29:12 33° 115° (ESE) 23:33:38 436.795
ZACube-1 05 Sep 23:26:01 23:27:15 11° 274° (W) 23:28:11 437.345
50 SAT 05 Sep 23:26:48 23:30:37 45° 261° (W) 23:34:26 437.505
FUNcube-1 05 Sep 23:29:15 23:30:01 10° 274° (W) 23:30:28 145.935
DUCHIFAT 1 05 Sep 23:37:33 23:41:26 33° 96° (E) 23:45:19 145.980
UNISAT 6 05 Sep 23:38:12 23:42:45 79° 284° (WNW) 23:47:09 437.425
VELOX 1 05 Sep 23:39:40 23:43:53 44° 261° (W) 23:48:08 145.980
POLYITAN 1 05 Sep 23:41:52 23:45:56 40° 98° (E) 23:49:59 437.675
POPSAT HIP 1 05 Sep 23:42:10 23:46:13 39° 97° (E) 23:50:15 437.405
AIST 2 05 Sep 23:53:25 23:57:36 74° 56° (NE) 00:01:43 435.215
NANOSAT C BR1 05 Sep 23:56:57 00:01:11 58° 100° (E) 00:05:24 145.865
BEESAT 3 05 Sep 23:57:26 23:59:47 15° 249° (WSW) 00:01:57 437.485
QB50P2 06 Sep 00:00:29 00:04:47 67° 101° (E) 00:09:02 145.880/145.840
TIGRISAT 06 Sep 00:04:38 00:08:56 43° 288° (WNW) 00:13:05 435.000
SPROUT 06 Sep 00:05:22 00:09:38 65° 75° (ENE) 00:13:56 437.525
DX 1 06 Sep 00:06:25 00:09:02 15° 270° (W) 00:11:28 434.975-435.025
UKube-1 06 Sep 00:09:58 00:12:35 15° 269° (W) 00:15:02 .
QB50P1 06 Sep 00:13:02 00:17:22 90° 100° (E) 00:21:39 145.935-145.965
BEESAT 2 06 Sep 00:18:39 00:20:20 12° 250° (WSW) 00:21:49 435.950
AUBIESAT-1 06 Sep 00:19:51 00:23:35 59° 291° (WNW) 00:27:01 437.475
ANTELSAT 06 Sep 00:24:33 00:28:23 26° 292° (WNW) 00:32:01 437.575/2403.000
RS-15 06 Sep 00:24:37 00:36:31 80° 55° (NE) 00:48:50 29.354- 29.394
DANDE 06 Sep 00:28:03 00:31:58 55° 286° (WNW) 00:37:17 436.750
M-CUBED/EXP-1 PRIME 06 Sep 00:31:01 00:34:33 35° 295° (WNW) 00:37:49 437.505
CUBEBUG 1 06 Sep 00:33:39 00:36:51 20° 268° (W) 00:39:58 437.445
ITUPSAT 1 06 Sep 00:34:33 00:37:11 15° 63° (ENE) 00:39:59 437.325
Cosmos 2504 06 Sep 00:42:11 00:49:25 30° 293° (WNW) 00:56:39 435.465 / 435.565
PCSat 06 Sep 00:46:45 00:52:05 63° 116° (ESE) 00:57:28 145.827
TISAT 1 06 Sep 00:46:48 00:51:00 76° 257° (WSW) 00:55:16 437.305
VERMONT LUNAR 06 Sep 00:54:02 00:56:06 17° 153° (SSE) 00:58:12 437.305
BUGSAT 1 06 Sep 00:55:22 00:59:32 51° 287° (WNW) 01:03:40 437.445
CUSAT 1 06 Sep 01:02:09 01:05:48 20° 300° (WNW) 01:10:02 437.405
BEESAT 06 Sep 01:02:26 01:06:27 28° 68° (ENE) 01:10:31 436.000
SO-50 06 Sep 01:05:20 01:09:45 34° 313° (NW) 01:14:14 436.795
DUCHIFAT 1 06 Sep 01:13:43 01:17:03 22° 292° (WNW) 01:20:17 145.980
POLYITAN 1 06 Sep 01:18:29 01:21:34 19° 294° (WNW) 01:24:30 437.675
POPSAT HIP 1 06 Sep 01:18:43 01:21:49 19° 294° (WNW) 01:24:48 437.405
SWISSCUBE 06 Sep 01:28:32 01:33:09 55° 73° (ENE) 01:37:50 437.505
NANOSAT C BR1 06 Sep 01:34:19 01:36:35 14° 296° (WNW) 01:38:40 145.865
AIST 2 06 Sep 01:34:49 01:35:37 10° 251° (WSW) 01:36:10 435.215
QB50P2 06 Sep 01:38:22 01:40:10 12° 297° (WNW) 01:41:46 145.880/145.840
Oscar 19 06 Sep 01:41:21 01:45:56 31° 95° (E) 01:50:33 437.125/150
SPROUT 06 Sep 01:44:53 01:46:14 11° 273° (W) 01:47:20 437.525
GONETS M04 06 Sep 01:56:19 02:04:24 47° 89° (E) 02:12:39
ITUPSAT 1 06 Sep 02:09:53 02:14:36 64° 259° (W) 02:19:22 437.325
KKS-1 06 Sep 02:18:15 02:21:58 27° 68° (ENE) 02:25:45 437.445
VERMONT LUNAR 06 Sep 02:29:12 02:32:08 52° 169° (S) 02:35:04 437.305
PCSat 06 Sep 02:31:44 02:36:00 22° 316° (NW) 02:40:10 145.827
O/OREOS (USA 219) 06 Sep 02:34:35 02:36:58 14° 50° (NE) 02:39:30 437.305
RS-15 06 Sep 02:38:11 02:48:06 30° 255° (WSW) 02:57:47 29.354- 29.394
BEESAT 06 Sep 02:39:58 02:44:13 31° 264° (W) 02:48:26 436.000
Cosmos 2499 06 Sep 02:42:51 02:49:20 26° 82° (E) 02:56:18 435.465 / 435.565
JAS-2 06 Sep 02:48:30 02:53:35 24° 88° (E) 02:58:23 435.910
ITAMSAT 1 06 Sep 02:52:42 02:57:28 36° 97° (E) 03:02:16 435.822/435.867
Gurwin Techsat 1B 06 Sep 03:08:05 03:13:22 65° 101° (E) 03:18:39 435.225
SWISSCUBE 06 Sep 03:08:27 03:11:26 16° 270° (W) 03:14:12 437.505
MOZHAYETS 4 06 Sep 03:13:19 03:16:01 16° 65° (ENE) 03:18:52
STARS 06 Sep 03:20:30 03:24:54 72° 75° (ENE) 03:29:21 437.465
Oscar 19 06 Sep 03:20:38 03:25:16 32° 292° (WNW) 03:29:48 437.125/150
PHONESAT 2.4 06 Sep 03:26:20 03:29:10 24° 155° (SSE) 03:32:00 2401.200-2431.200
GONETS M04 06 Sep 03:53:25 04:01:27 39° 289° (WNW) 04:09:27
KKS-1 06 Sep 03:54:35 03:58:31 29° 265° (W) 04:02:25 437.445
AO-7 06 Sep 03:58:28 04:05:36 32° 95° (E) 04:12:54 29.400- 29.500
VERMONT LUNAR 06 Sep 04:05:26 04:08:25 66° 185° (S) 04:11:22 437.305
O/OREOS (USA 219) 06 Sep 04:12:24 04:17:00 72° 250° (WSW) 04:21:33 437.305
ITAMSAT 1 06 Sep 04:32:26 04:36:52 28° 293° (WNW) 04:41:13 435.822/435.867
JAS-2 06 Sep 04:32:38 04:39:16 55° 290° (WNW) 04:45:03 435.910
Cosmos 2499 06 Sep 04:33:09 04:41:45 72° 280° (W) 04:50:41 435.465 / 435.565
MOZHAYETS 4 06 Sep 04:48:18 04:52:50 56° 260° (W) 04:57:22
Gurwin Techsat 1B 06 Sep 04:49:20 04:52:53 18° 298° (WNW) 04:56:15 435.225
HORYU 2 06 Sep 04:57:04 05:01:34 82° 105° (ESE) 05:05:59 437.375
STARS 06 Sep 05:00:56 05:01:57 10° 273° (W) 05:02:40 437.465
PHONESAT 2.4 06 Sep 05:03:20 05:06:44 62° 171° (S) 05:10:07 2401.200-2431.200
CUBESAT XI-V 06 Sep 05:21:55 05:25:50 29° 69° (ENE) 05:29:51 437.345
VERMONT LUNAR 06 Sep 05:41:57 05:44:34 28° 201° (SSW) 05:47:10 437.305
AO-7 06 Sep 05:50:45 05:58:51 58° 294° (WNW) 06:06:52 29.400- 29.500
STRAND 1 06 Sep 05:56:14 05:59:53 21° 64° (ENE) 06:03:42 437.568
CUTE-I 06 Sep 06:00:37 06:03:40 16° 89° (E) 06:06:58 437.470
ISS 06 Sep 06:16:55 06:19:29 22° 135° (SE) 06:22:07 145.825
PRISM 06 Sep 06:27:27 06:30:38 23° 68° (ENE) 06:33:54 437.425
Cosmos 2499 06 Sep 06:31:45 06:36:55 16° 304° (NW) 06:41:36 435.465 / 435.565
HORYU 2 06 Sep 06:36:21 06:37:35 11° 299° (WNW) 06:38:35 437.375
PHONESAT 2.4 06 Sep 06:41:07 06:44:31 65° 188° (S) 06:47:53 2401.200-2431.200
Cubesat XI-IV 06 Sep 06:55:56 07:01:08 52° 100° (E) 07:06:20 437.490
CUBESAT XI-V 06 Sep 06:59:18 07:03:15 28° 266° (W) 07:07:11 437.345
AIST 1 06 Sep 07:14:11 07:18:07 39° 93° (E) 07:22:07
YUBILEINY 06 Sep 07:17:21 07:25:47 47° 73° (ENE) 07:34:12 435.215
STRAND 1 06 Sep 07:33:51 07:38:47 50° 260° (W) 07:43:44 437.568
CUTE-I 06 Sep 07:39:01 07:44:18 66° 287° (WNW) 07:49:35 437.470
AO-7 06 Sep 07:46:10 07:50:04 14° 315° (NW) 07:53:31 29.400- 29.500
GOMX 1 06 Sep 07:52:01 07:56:20 24° 91° (E) 08:00:45 467.674
ISS 06 Sep 07:52:35 07:55:44 45° 331° (NNW) 07:58:53 145.825
BRITE-PL 06 Sep 07:52:58 07:58:15 40° 96° (E) 08:03:36 437.365/2234.400
PCSat 06 Sep 07:53:22 07:54:55 11° 33° (NNE) 07:56:40 145.827
SO-50 06 Sep 07:55:54 08:00:27 35° 47° (NE) 08:04:55 436.795
PRISM 06 Sep 08:02:23 08:05:57 29° 264° (W) 08:09:31 437.425
Cosmos 2491 06 Sep 08:07:35 08:15:42 47° 89° (E) 08:23:56 435.465 / 435.565
CUSAT 1 06 Sep 08:14:01 08:15:52 11° 52° (NE) 08:18:22 437.405
PHONESAT 2.4 06 Sep 08:19:11 08:22:06 26° 204° (SSW) 08:25:00 2401.200-2431.200
HO-68 06 Sep 08:27:19 08:33:08 27° 93° (E) 08:39:07 435.675
Cosmos 2504 06 Sep 08:36:12 08:41:58 21° 61° (ENE) 08:47:50 435.465 / 435.565
Cubesat XI-IV 06 Sep 08:36:52 08:40:55 22° 296° (WNW) 08:44:49 437.490
AIST 1 06 Sep 08:53:08 08:56:01 17° 291° (WNW) 08:58:46
UNISAT 6 06 Sep 09:04:03 09:05:17 11° 62° (ENE) 09:06:48 437.425
CUTE 1.7 + AOD 2 06 Sep 09:09:26 09:13:31 48° 99° (E) 09:17:35 437.475
DOVE 4 06 Sep 09:13:13 09:18:34 81° 101° (E) 09:23:46 437.250
YUBILEINY 06 Sep 09:14:30 09:22:29 39° 273° (W) 09:30:16 435.215
CINEMA 3 06 Sep 09:14:45 09:19:19 36° 96° (E) 09:23:43 145.822/145.860
DANDE 06 Sep 09:23:05 09:29:20 25° 64° (ENE) 09:36:13 436.750
CANX-2 06 Sep 09:24:20 09:28:35 81° 102° (ESE) 09:32:46 2200.000
TIGRISAT 06 Sep 09:27:54 09:31:05 19° 65° (ENE) 09:34:25 435.000
GOMX 1 06 Sep 09:29:24 09:34:41 48° 288° (WNW) 09:39:53 467.674
ISS 06 Sep 09:30:36 09:32:45 16° 350° (N) 09:34:54 145.825
BRITE-PL 06 Sep 09:31:43 09:36:36 31° 292° (WNW) 09:41:27 437.365/2234.400
AUBIESAT-1 06 Sep 09:33:12 09:36:29 20° 62° (ENE) 09:39:49 437.475
DELFI C3 06 Sep 09:33:49 09:35:11 12° 89° (E) 09:36:47 145.870
PCSat 06 Sep 09:34:23 09:39:42 53° 55° (NE) 09:45:00 145.827
SEEDS 06 Sep 09:34:48 09:38:59 75° 102° (ESE) 09:43:08 437.485
ZACube-1 06 Sep 09:35:51 09:38:08 14° 88° (E) 09:40:36 437.345
SO-50 06 Sep 09:36:33 09:40:57 32° 246° (WSW) 09:45:10 436.795
FUNcube-1 06 Sep 09:38:18 09:40:41 15° 89° (E) 09:43:13 145.935
M-CUBED/EXP-1 PRIME 06 Sep 09:43:45 09:47:48 29° 64° (ENE) 09:51:48 437.505
COMPASS 1 06 Sep 09:46:26 09:50:36 79° 101° (ESE) 09:54:44 437.405
ANTELSAT 06 Sep 09:46:40 09:50:42 29° 69° (ENE) 09:54:47 437.575/2403.000
AAUSAT CUBESAT 2 06 Sep 09:51:10 09:55:19 75° 101° (ESE) 09:59:25 437.432
CUSAT 1 06 Sep 09:52:40 10:00:30 51° 73° (ENE) 10:08:22 437.405
UWE-3 06 Sep 09:55:19 09:59:20 31° 95° (E) 10:03:17 435.000/436.395/437.385
CUBEBUG 2 06 Sep 10:01:01 10:05:30 47° 98° (E) 10:09:49 437.445
Cosmos 2491 06 Sep 10:04:45 10:12:47 39° 290° (WNW) 10:20:43 435.465 / 435.565
BUGSAT 1 06 Sep 10:13:33 10:14:23 11° 63° (ENE) 10:15:27 437.445
Oscar 11 06 Sep 10:13:45 10:18:00 57° 100° (E) 10:22:13 145.826/435.025
HO-68 06 Sep 10:14:16 10:21:20 59° 291° (WNW) 10:28:21 435.675
Cosmos 2504 06 Sep 10:27:03 10:35:30 84° 264° (W) 10:43:19 435.465 / 435.565
DUCHIFAT 1 06 Sep 10:30:13 10:33:45 26° 69° (ENE) 10:37:22 145.980
POLYITAN 1 06 Sep 10:35:03 10:38:51 32° 70° (ENE) 10:42:42 437.675
POPSAT HIP 1 06 Sep 10:35:11 10:38:56 31° 70° (ENE) 10:42:45 437.405
UNISAT 6 06 Sep 10:36:42 10:41:25 88° 252° (WSW) 10:46:10 437.425
CUTE 1.7 + AOD 2 06 Sep 10:46:31 10:49:05 15° 294° (WNW) 10:51:30 437.475
NANOSAT C BR1 06 Sep 10:49:29 10:53:31 44° 72° (ENE) 10:57:36 145.865
CINEMA 3 06 Sep 10:52:12 10:56:19 26° 293° (WNW) 11:00:13 145.822/145.860
DOVE 4 06 Sep 10:52:43 10:55:39 15° 298° (WNW) 10:58:20 437.250
QB50P2 06 Sep 10:53:21 10:57:29 51° 73° (ENE) 11:01:41 145.880/145.840
50 SAT 06 Sep 11:02:13 11:04:49 18° 92° (E) 11:07:31 437.505
TIGRISAT 06 Sep 11:02:55 11:07:29 49° 261° (W) 11:12:04 435.000
AISAT 06 Sep 11:04:05 11:07:09 18° 92° (E) 11:10:21 437.250
HUMSAT D 06 Sep 11:04:19 11:08:25 50° 99° (E) 11:12:28 437.325/437.525
DANDE 06 Sep 11:05:10 11:13:17 80° 262° (W) 11:21:47 436.750
QB50P1 06 Sep 11:05:37 11:09:50 69° 75° (ENE) 11:14:08 145.935-145.965
AUBIESAT-1 06 Sep 11:06:18 11:10:53 50° 256° (WSW) 11:15:19 437.475
DELFI C3 06 Sep 11:06:45 11:10:38 52° 286° (WNW) 11:14:29 145.870
ISS 06 Sep 11:07:55 11:10:06 16° 10° (N) 11:12:18 145.825
ZACube-1 06 Sep 11:10:34 11:14:55 52° 287° (WNW) 11:19:07 437.345
FUNcube-1 06 Sep 11:13:04 11:17:23 50° 287° (WNW) 11:21:34 145.935
SEEDS 06 Sep 11:13:29 11:14:13 10° 297° (WNW) 11:14:44 437.485
ESTCUBE 1 06 Sep 11:13:48 11:16:44 17° 91° (E) 11:19:49 437.505/2401.250
M-CUBED/EXP-1 PRIME 06 Sep 11:18:07 11:22:27 33° 259° (WSW) 11:26:38 437.505
PCSat 06 Sep 11:18:37 11:22:47 22° 252° (WSW) 11:26:47 145.827
ANTELSAT 06 Sep 11:23:16 11:27:25 30° 265° (W) 11:31:32 437.575/2403.000
VELOX 1 06 Sep 11:29:45 11:33:46 32° 96° (E) 11:37:49 145.980
AAUSAT CUBESAT 2 06 Sep 11:29:56 11:30:22 10° 297° (WNW) 11:30:33 437.432
UWE-3 06 Sep 11:32:00 11:35:45 25° 292° (WNW) 11:39:19 435.000/436.395/437.385
CUBEBUG 2 06 Sep 11:38:37 11:41:49 18° 295° (WNW) 11:44:48 437.445
